Home   Weather   Amman   Past weeks
Flag for Jordan

Past Weather in Amman, Jordan — Yesterday and Last 2 Weeks

Now
72 °F

Clear.


Feels Like: 75 °F
Forecast: 87 / 62 °F
Wind: 9 mph from Northwest

Location: Amman Airport

Current Time: Jul 15, 2019 at 11:15:28 pm

Latest Report: Jul 15, 2019 at 10:00 pm


Visibility: 4 mi

Pressure: 29.86 "Hg (27.17 "Hg at 816m altitude)

Humidity: 69%

Dew Point: 61 °F

Location of AmmanLocation

Past Weather in Amman — Graph

°F

Amman Temperature Yesterday

Maximum temperature yesterday: 90 °F (at 4:00 pm)
Minimum temperature yesterday: 68 °F (at 6:00 am)
Average temperature yesterday: 78 °F

High & Low Weather Summary for the Past Weeks

 TemperatureHumidityPressure
High95 °F (Jul 11, 3:00 pm)83% (Jul 3, 6:00 am)29.95 "Hg (Jul 3, 6:00 am)
Low64 °F (Jul 3, 5:00 am)12% (Jul 11, 7:00 am)29.74 "Hg (Jul 6, 6:00 pm)
Average80 °F39%29.86 "Hg
* Reported Jun 30 10:00 pm — Jul 15 10:00 pm, Amman. Weather by CustomWeather, © 2019

Note: Actual official high and low records may vary slightly from our data, if they occured in-between our weather recording intervals... More about our weather records

Advertising

Amman Weather History for the Previous 24 Hours

Scroll right to see more
 ConditionsComfort  
Time TempWeatherWind HumidityBarometerVisibility
10:00 pm
Mon, Jul 15
72 °FClear.9 mph69%29.86 "Hg4 mi
9:00 pm73 °FPassing clouds.16 mph65%29.86 "Hg4 mi
8:00 pm77 °FPassing clouds.16 mph51%29.86 "Hg4 mi
7:00 pm81 °FPassing clouds.15 mph45%29.86 "Hg4 mi
6:00 pm84 °FPassing clouds.12 mph40%29.83 "Hg4 mi
5:00 pm86 °FHaze.14 mph38%29.83 "Hg3 mi
4:00 pm86 °FHaze.14 mph33%29.83 "Hg3 mi
3:00 pm86 °FHaze.16 mph35%29.86 "Hg3 mi
2:00 pm84 °FPassing clouds.13 mph37%29.86 "Hg4 mi
1:00 pm82 °FHaze.12 mph40%29.86 "Hg3 mi
12:00 pm82 °FPassing clouds.12 mph35%29.86 "Hg4 mi
11:00 am81 °FPassing clouds.8 mph42%29.86 "Hg4 mi
10:00 am79 °FPassing clouds.9 mph42%29.86 "Hg4 mi
9:00 am73 °FPassing clouds.12 mph57%29.86 "Hg4 mi
8:00 am68 °FPassing clouds.7 mph73%29.86 "Hg3 mi
7:00 am68 °FPassing clouds.7 mph69%29.83 "Hg3 mi
6:00 am64 °FPassing clouds.6 mph83%29.83 "Hg3 mi
5:00 am64 °FHaze.6 mph73%29.83 "Hg3 mi
4:00 am66 °FHaze.2 mph56%29.83 "Hg3 mi
3:00 am68 °FClear.No wind53%29.83 "Hg4 mi
2:00 am68 °FClear.No wind53%29.83 "Hg4 mi
1:00 am70 °FClear.3 mph50%29.86 "Hg4 mi
12:00 am72 °FClear.7 mph57%29.86 "Hg4 mi
11:00 pm
Sun, Jul 14
72 °FClear.8 mph61%29.86 "Hg4 mi
Weather by CustomWeather, © 2019

See weather overview

LIVE PARTIAL LUNAR ECLIPSE – Watch the eclipse as it happens